Terminal Aerodrome Forecast
Issued by NWS

Home | Current Version | Previous Version | Text Only | Print | Product List | Glossary On
Versions: 1 2 3 4 5 6 7 8 9 10 11 12 13
000
FTPQ31 PGUM 050329 AAK
TAFTKK
TAF AMD
PTKK 050329Z 0503/0524 06012G20KT P6SM VCTS SCT012CB SCT030 BKN120
      TEMPO 0503/0506 3SM +SHRA SCT012 OVC030
     FM050700 05008KT P6SM VCSH SCT012 SCT030 BKN120=

USA.gov is the U.S. government's official web portal to all federal, state and local government web resources and services.